| time (UTC) | temp F | wind direction | speed MPH | gust MPH | rain 1hr in | rain 24hr in | rain mn in | humidity % | barometer mb |
| 20260509203432 | 73 | 266 | 5.0 | 9.0 | 0.00 | 0.00 | 0.00 | 33 | 1003.9 |
| 20260509202921 | 73 | 259 | 5.0 | 10.0 | 0.00 | 0.00 | 0.00 | 32 | 1003.9 |
| 20260509202429 | 73 | 360 | 3.0 | 10.0 | 0.00 | 0.00 | 0.00 | 34 | 1004.1 |
| 20260509201913 | 73 | 260 | 3.0 | 13.0 | 0.00 | 0.00 | 0.00 | 35 | 1004.0 |
| 20260509201424 | 73 | 240 | 5.0 | 13.0 | 0.00 | 0.00 | 0.00 | 34 | 1004.0 |
| 20260509200934 | 72 | 265 | 5.0 | 10.0 | 0.00 | 0.00 | 0.00 | 35 | 1004.0 |
| 20260509200421 | 72 | 239 | 5.0 | 11.0 | 0.00 | 0.00 | 0.00 | 35 | 1004.0 |
| 20260509195913 | 72 | 263 | 6.0 | 11.0 | 0.00 | 0.00 | 0.00 | 36 | 1004.1 |
| 20260509195449 | 72 | 316 | 3.0 | 8.0 | 0.00 | 0.00 | 0.00 | 37 | 1004.3 |
| 20260509194916 | 72 | 281 | 3.0 | 11.0 | 0.00 | 0.00 | 0.00 | 35 | 1004.1 |
| 20260509194423 | 72 | 292 | 6.0 | 11.0 | 0.00 | 0.00 | 0.00 | 34 | 1004.1 |
| 20260509193929 | 72 | 211 | 5.0 | 10.0 | 0.00 | 0.00 | 0.00 | 34 | 1004.1 |
| 20260509193437 | 72 | 190 | 4.0 | 10.0 | 0.00 | 0.00 | 0.00 | 35 | 1004.0 |
| 20260509192926 | 72 | 210 | 7.0 | 10.0 | 0.00 | 0.00 | 0.00 | 33 | 1003.9 |
| 20260509192414 | 72 | 232 | 4.0 | 9.0 | 0.00 | 0.00 | 0.00 | 34 | 1004.1 |
| 20260509191925 | 72 | 207 | 3.0 | 6.0 | 0.00 | 0.00 | 0.00 | 35 | 1004.2 |
| 20260509191435 | 72 | 248 | 3.0 | 10.0 | 0.00 | 0.00 | 0.00 | 33 | 1004.1 |
| 20260509190941 | 73 | 283 | 6.0 | 10.0 | 0.00 | 0.00 | 0.00 | 33 | 1004.1 |
| 20260509190427 | 73 | 301 | 7.0 | 11.0 | 0.00 | 0.00 | 0.00 | 32 | 1004.1 |
| 20260509185938 | 72 | 273 | 5.0 | 9.0 | 0.00 | 0.00 | 0.00 | 33 | 1004.1 |
| 20260509185449 | 72 | 276 | 5.0 | 10.0 | 0.00 | 0.00 | 0.00 | 32 | 1004.0 |
| 20260509184917 | 73 | 290 | 5.0 | 10.0 | 0.00 | 0.00 | 0.00 | 33 | 1003.9 |
| 20260509184429 | 72 | 207 | 3.0 | 8.0 | 0.00 | 0.00 | 0.00 | 34 | 1003.8 |
| 20260509183915 | 72 | 228 | 4.0 | 8.0 | 0.00 | 0.00 | 0.00 | 33 | 1004.0 |
| 20260509183453 | 72 | 325 | 5.0 | 15.0 | 0.00 | 0.00 | 0.00 | 34 | 1004.0 |
| 20260509182922 | 72 | 260 | 5.0 | 15.0 | 0.00 | 0.00 | 0.00 | 33 | 1004.1 |
| 20260509182430 | 73 | 246 | 5.0 | 12.0 | 0.00 | 0.00 | 0.00 | 36 | 1004.0 |
| 20260509181935 | 72 | 312 | 5.0 | 12.0 | 0.00 | 0.00 | 0.00 | 35 | 1003.7 |
| 20260509181427 | 72 | 288 | 4.0 | 12.0 | 0.00 | 0.00 | 0.00 | 35 | 1004.1 |
| 20260509180914 | 72 | 301 | 3.0 | 9.0 | 0.00 | 0.00 | 0.00 | 35 | 1003.8 |
| 20260509180422 | 72 | 282 | 3.0 | 10.0 | 0.00 | 0.00 | 0.00 | 35 | 1003.9 |
| 20260509175933 | 72 | 284 | 5.0 | 9.0 | 0.00 | 0.00 | 0.00 | 34 | 1004.1 |
| 20260509175436 | 72 | 292 | 5.0 | 11.0 | 0.00 | 0.00 | 0.00 | 34 | 1004.1 |
| 20260509174923 | 72 | 240 | 7.0 | 11.0 | 0.00 | 0.00 | 0.00 | 34 | 1004.0 |
| 20260509174415 | 71 | 225 | 6.0 | 11.0 | 0.00 | 0.00 | 0.00 | 36 | 1004.1 |
| 20260509173924 | 71 | 264 | 5.0 | 9.0 | 0.00 | 0.00 | 0.00 | 35 | 1003.9 |
| 20260509173413 | 71 | 261 | 4.0 | 12.0 | 0.00 | 0.00 | 0.00 | 37 | 1004.1 |
| 20260509172924 | 71 | 234 | 5.0 | 9.0 | 0.00 | 0.00 | 0.00 | 42 | 1004.1 |
| 20260509172415 | 71 | 271 | 3.0 | 7.0 | 0.00 | 0.00 | 0.00 | 48 | 1004.1 |
| 20260509171950 | 70 | 259 | 2.0 | 7.0 | 0.00 | 0.00 | 0.00 | 51 | 1004.1 |
| 20260509171418 | 70 | 257 | 3.0 | 9.0 | 0.00 | 0.00 | 0.00 | 50 | 1004.1 |
| 20260509170927 | 69 | 261 | 5.0 | 9.0 | 0.00 | 0.00 | 0.00 | 51 | 1004.2 |
| 20260509170416 | 69 | 277 | 2.0 | 5.0 | 0.00 | 0.00 | 0.00 | 55 | 1004.1 |
| 20260509165927 | 68 | 203 | 3.0 | 11.0 | 0.00 | 0.00 | 0.00 | 56 | 1004.2 |
| 20260509165413 | 68 | 209 | 6.0 | 11.0 | 0.00 | 0.00 | 0.00 | 56 | 1004.2 |
| 20260509164920 | 68 | 192 | 3.0 | 8.0 | 0.00 | 0.00 | 0.00 | 57 | 1004.3 |
| 20260509164429 | 68 | 195 | 3.0 | 8.0 | 0.00 | 0.00 | 0.00 | 57 | 1004.4 |
| 20260509163939 | 67 | 227 | 3.0 | 6.0 | 0.00 | 0.00 | 0.00 | 57 | 1004.4 |
| 20260509163449 | 67 | 182 | 3.0 | 6.0 | 0.00 | 0.00 | 0.00 | 57 | 1004.4 |
| 20260509162920 | 67 | 194 | 3.0 | 11.0 | 0.00 | 0.00 | 0.00 | 58 | 1004.2 |
| 20260509162426 | 67 | 154 | 4.0 | 11.0 | 0.00 | 0.00 | 0.00 | 56 | 1004.4 |
| 20260509161913 | 67 | 159 | 5.0 | 10.0 | 0.00 | 0.00 | 0.00 | 61 | 1004.4 |
| 20260509161425 | 66 | 164 | 3.0 | 9.0 | 0.00 | 0.00 | 0.00 | 63 | 1004.3 |
| 20260509160914 | 66 | 173 | 3.0 | 10.0 | 0.00 | 0.00 | 0.00 | 64 | 1004.3 |
| 20260509160420 | 66 | 199 | 5.0 | 10.0 | 0.00 | 0.00 | 0.00 | 65 | 1004.3 |
| 20260509155929 | 65 | 172 | 3.0 | 9.0 | 0.00 | 0.00 | 0.00 | 66 | 1004.3 |
| 20260509155415 | 65 | 163 | 4.0 | 8.0 | 0.00 | 0.00 | 0.00 | 67 | 1004.4 |
| 20260509154924 | 64 | 173 | 3.0 | 8.0 | 0.00 | 0.00 | 0.00 | 68 | 1004.4 |
| 20260509154416 | 64 | 175 | 3.0 | 7.0 | 0.00 | 0.00 | 0.00 | 67 | 1004.3 |
| 20260509153919 | 64 | 197 | 3.0 | 8.0 | 0.00 | 0.00 | 0.00 | 66 | 1004.3 |
| 20260509153425 | 64 | 151 | 4.0 | 8.0 | 0.00 | 0.00 | 0.00 | 67 | 1004.3 |
| 20260509152936 | 64 | 136 | 3.0 | 7.0 | 0.00 | 0.00 | 0.00 | 70 | 1004.3 |
| 20260509152444 | 63 | 219 | 4.0 | 9.0 | 0.00 | 0.00 | 0.00 | 70 | 1004.5 |
| 20260509151931 | 63 | 213 | 3.0 | 10.0 | 0.00 | 0.00 | 0.00 | 72 | 1004.4 |
| 20260509151421 | 62 | 209 | 4.0 | 7.0 | 0.00 | 0.00 | 0.00 | 73 | 1004.5 |
| 20260509150928 | 62 | 248 | 3.0 | 9.0 | 0.00 | 0.00 | 0.00 | 74 | 1004.5 |
| 20260509150416 | 62 | 199 | 3.0 | 8.0 | 0.00 | 0.00 | 0.00 | 74 | 1004.5 |
| 20260509145948 | 62 | 226 | 4.0 | 8.0 | 0.00 | 0.00 | 0.00 | 74 | 1004.4 |
| 20260509145437 | 61 | 229 | 3.0 | 6.0 | 0.00 | 0.00 | 0.00 | 76 | 1004.5 |
| 20260509144947 | 61 | 248 | 3.0 | 6.0 | 0.00 | 0.00 | 0.00 | 77 | 1004.5 |
| 20260509144436 | 60 | 263 | 3.0 | 8.0 | 0.00 | 0.00 | 0.00 | 78 | 1004.6 |
| 20260509143943 | 60 | 254 | 4.0 | 8.0 | 0.00 | 0.00 | 0.00 | 78 | 1004.6 |
| 20260509143427 | 60 | 261 | 3.0 | 8.0 | 0.00 | 0.00 | 0.00 | 78 | 1004.5 |
| 20260509142917 | 60 | 262 | 1.0 | 10.0 | 0.00 | 0.00 | 0.00 | 80 | 1004.2 |
| 20260509142425 | 59 | 202 | 5.0 | 10.0 | 0.00 | 0.00 | 0.00 | 79 | 1004.2 |
| 20260509141931 | 59 | 192 | 2.0 | 7.0 | 0.00 | 0.00 | 0.00 | 81 | 1004.2 |
| 20260509141444 | 59 | 169 | 2.0 | 8.0 | 0.00 | 0.00 | 0.00 | 81 | 1004.3 |
| 20260509140931 | 58 | 221 | 5.0 | 8.0 | 0.00 | 0.00 | 0.00 | 81 | 1004.4 |
| 20260509140418 | 58 | 206 | 5.0 | 9.0 | 0.00 | 0.00 | 0.00 | 82 | 1004.4 |
| 20260509135928 | 58 | 191 | 5.0 | 9.0 | 0.00 | 0.00 | 0.00 | 82 | 1004.4 |
| 20260509135431 | 58 | 165 | 3.0 | 9.0 | 0.00 | 0.00 | 0.00 | 83 | 1004.3 |
| 20260509134940 | 57 | 50 | 4.0 | 9.0 | 0.00 | 0.00 | 0.00 | 83 | 1004.2 |
| 20260509134428 | 57 | 47 | 4.0 | 7.0 | 0.00 | 0.00 | 0.00 | 83 | 1004.1 |
| 20260509133918 | 57 | 44 | 4.0 | 6.0 | 0.00 | 0.00 | 0.00 | 84 | 1004.1 |
| 20260509133425 | 57 | 45 | 2.0 | 6.0 | 0.00 | 0.00 | 0.00 | 85 | 1004.2 |
| 20260509132953 | 56 | 34 | 3.0 | 6.0 | 0.00 | 0.00 | 0.00 | 85 | 1004.2 |
| 20260509132423 | 56 | 360 | 3.0 | 8.0 | 0.00 | 0.00 | 0.00 | 86 | 1004.1 |
| 20260509131933 | 56 | 360 | 4.0 | 8.0 | 0.00 | 0.00 | 0.00 | 86 | 1004.4 |
| 20260509131446 | 55 | 63 | 4.0 | 11.0 | 0.00 | 0.00 | 0.00 | 86 | 1004.3 |
| 20260509130915 | 55 | 64 | 6.0 | 11.0 | 0.00 | 0.00 | 0.00 | 87 | 1004.2 |
| 20260509130423 | 55 | 76 | 4.0 | 8.0 | 0.00 | 0.00 | 0.00 | 88 | 1004.2 |
| 20260509125914 | 55 | 360 | 2.0 | 8.0 | 0.00 | 0.00 | 0.00 | 89 | 1004.2 |
| 20260509125445 | 54 | 232 | 4.0 | 10.0 | 0.00 | 0.00 | 0.00 | 90 | 1004.3 |
| 20260509125001 | 54 | 17 | 5.0 | 10.0 | 0.00 | 0.00 | 0.00 | 90 | 1004.3 |
| 20260509124424 | 53 | 19 | 4.0 | 10.0 | 0.00 | 0.00 | 0.00 | 91 | 1004.2 |
| 20260509123932 | 53 | 21 | 6.0 | 12.0 | 0.00 | 0.00 | 0.00 | 91 | 1004.1 |
| 20260509123421 | 53 | 22 | 7.0 | 12.0 | 0.00 | 0.00 | 0.00 | 92 | 1004.1 |
| 20260509122931 | 53 | 19 | 3.0 | 9.0 | 0.00 | 0.00 | 0.00 | 93 | 1004.2 |
| 20260509122417 | 53 | 20 | 4.0 | 10.0 | 0.00 | 0.00 | 0.00 | 93 | 1004.1 |
| 20260509121925 | 52 | 19 | 5.0 | 10.0 | 0.00 | 0.00 | 0.00 | 93 | 1003.9 |
| 20260509121417 | 52 | 20 | 3.0 | 9.0 | 0.00 | 0.00 | 0.00 | 93 | 1003.9 |
| 20260509120925 | 52 | 21 | 3.0 | 9.0 | 0.00 | 0.00 | 0.00 | 94 | 1004.0 |
| 20260509120414 | 52 | 24 | 4.0 | 9.0 | 0.00 | 0.00 | 0.00 | 93 | 1004.0 |
| 20260509115927 | 52 | 19 | 4.0 | 9.0 | 0.00 | 0.00 | 0.00 | 94 | 1004.1 |
| 20260509115415 | 52 | 18 | 3.0 | 8.0 | 0.00 | 0.00 | 0.00 | 94 | 1004.1 |
| 20260509114917 | 52 | 20 | 3.0 | 8.0 | 0.00 | 0.00 | 0.00 | 94 | 1004.0 |
| 20260509114430 | 52 | 19 | 3.0 | 6.0 | 0.00 | 0.00 | 0.00 | 94 | 1004.1 |
| 20260509113937 | 52 | 18 | 3.0 | 9.0 | 0.00 | 0.00 | 0.00 | 94 | 1003.9 |
| 20260509113447 | 52 | 17 | 5.0 | 9.0 | 0.00 | 0.00 | 0.00 | 94 | 1003.8 |
| 20260509112920 | 52 | 18 | 3.0 | 8.0 | 0.00 | 0.00 | 0.00 | 94 | 1003.7 |
| 20260509112429 | 52 | 17 | 4.0 | 8.0 | 0.00 | 0.00 | 0.00 | 94 | 1003.7 |
| 20260509111916 | 52 | 17 | 3.0 | 6.0 | 0.00 | 0.00 | 0.00 | 94 | 1003.7 |
| 20260509111428 | 51 | 20 | 1.0 | 8.0 | 0.00 | 0.00 | 0.00 | 93 | 1003.7 |
| 20260509110937 | 52 | 17 | 4.0 | 8.0 | 0.00 | 0.00 | 0.00 | 94 | 1003.5 |
| 20260509110430 | 52 | 16 | 4.0 | 8.0 | 0.00 | 0.00 | 0.00 | 93 | 1003.4 |
| 20260509105922 | 52 | 18 | 4.0 | 9.0 | 0.00 | 0.00 | 0.00 | 93 | 1003.5 |
| 20260509105426 | 52 | 15 | 3.0 | 9.0 | 0.00 | 0.00 | 0.00 | 93 | 1003.5 |
| 20260509104914 | 52 | 15 | 5.0 | 10.0 | 0.00 | 0.00 | 0.00 | 94 | 1003.5 |
| 20260509104429 | 52 | 17 | 5.0 | 10.0 | 0.00 | 0.00 | 0.00 | 93 | 1003.4 |
| 20260509103916 | 52 | 17 | 4.0 | 9.0 | 0.00 | 0.00 | 0.00 | 93 | 1003.5 |
| 20260509103428 | 52 | 17 | 4.0 | 11.0 | 0.00 | 0.00 | 0.00 | 93 | 1003.5 |
| 20260509102919 | 52 | 16 | 5.0 | 13.0 | 0.00 | 0.00 | 0.00 | 93 | 1003.4 |
| 20260509102427 | 52 | 17 | 5.0 | 10.0 | 0.00 | 0.00 | 0.00 | 93 | 1003.5 |
| 20260509101915 | 52 | 17 | 6.0 | 10.0 | 0.00 | 0.00 | 0.00 | 93 | 1003.4 |
| 20260509101427 | 52 | 17 | 4.0 | 8.0 | 0.00 | 0.00 | 0.00 | 93 | 1003.5 |
| 20260509100918 | 52 | 17 | 4.0 | 8.0 | 0.00 | 0.00 | 0.00 | 93 | 1003.6 |
| 20260509100428 | 52 | 17 | 4.0 | 8.0 | 0.00 | 0.00 | 0.00 | 93 | 1003.7 |
| 20260509095940 | 52 | 16 | 3.0 | 6.0 | 0.00 | 0.00 | 0.00 | 93 | 1003.7 |
| 20260509095428 | 52 | 17 | 4.0 | 8.0 | 0.00 | 0.00 | 0.00 | 93 | 1003.7 |
| 20260509094918 | 52 | 17 | 4.0 | 8.0 | 0.00 | 0.00 | 0.00 | 93 | 1003.7 |
| 20260509094425 | 52 | 17 | 4.0 | 7.0 | 0.00 | 0.00 | 0.00 | 93 | 1003.8 |
| 20260509093914 | 52 | 15 | 4.0 | 6.0 | 0.00 | 0.00 | 0.00 | 92 | 1003.8 |
| 20260509093424 | 52 | 16 | 4.0 | 8.0 | 0.00 | 0.00 | 0.00 | 92 | 1003.8 |
| 20260509092934 | 52 | 16 | 3.0 | 7.0 | 0.00 | 0.00 | 0.00 | 92 | 1003.9 |
| 20260509092423 | 52 | 16 | 4.0 | 6.0 | 0.00 | 0.00 | 0.00 | 92 | 1004.1 |
| 20260509091930 | 52 | 17 | 2.0 | 5.0 | 0.00 | 0.00 | 0.00 | 92 | 1004.2 |
| 20260509091442 | 52 | 16 | 4.0 | 6.0 | 0.00 | 0.00 | 0.00 | 92 | 1004.0 |
| 20260509090926 | 52 | 15 | 4.0 | 6.0 | 0.00 | 0.00 | 0.00 | 92 | 1004.1 |
| 20260509090434 | 52 | 15 | 3.0 | 6.0 | 0.00 | 0.00 | 0.00 | 92 | 1004.2 |
| 20260509085925 | 52 | 15 | 3.0 | 9.0 | 0.00 | 0.00 | 0.00 | 91 | 1004.3 |
| 20260509085433 | 52 | 16 | 3.0 | 9.0 | 0.00 | 0.00 | 0.00 | 91 | 1004.2 |
| 20260509084919 | 52 | 16 | 3.0 | 6.0 | 0.00 | 0.00 | 0.00 | 91 | 1004.3 |
| 20260509084428 | 52 | 16 | 3.0 | 7.0 | 0.00 | 0.00 | 0.00 | 91 | 1004.4 |
| 20260509083935 | 52 | 17 | 4.0 | 5.0 | 0.00 | 0.00 | 0.00 | 91 | 1004.3 |
| 20260509083443 | 52 | 15 | 3.0 | 5.0 | 0.00 | 0.00 | 0.00 | 91 | 1004.3 |
| 20260509082945 | 52 | 15 | 3.0 | 5.0 | 0.00 | 0.00 | 0.00 | 91 | 1004.3 |
| 20260509082432 | 52 | 15 | 3.0 | 8.0 | 0.00 | 0.00 | 0.00 | 90 | 1004.3 |
| 20260509081919 | 52 | 15 | 3.0 | 5.0 | 0.00 | 0.00 | 0.00 | 90 | 1004.3 |
| 20260509081429 | 52 | 15 | 3.0 | 4.0 | 0.00 | 0.00 | 0.00 | 90 | 1004.4 |
| 20260509080917 | 52 | 16 | 2.0 | 4.0 | 0.00 | 0.00 | 0.00 | 90 | 1004.3 |
| 20260509080452 | 52 | 16 | 2.0 | 4.0 | 0.00 | 0.00 | 0.00 | 89 | 1004.1 |
| 20260509075924 | 52 | 15 | 2.0 | 6.0 | 0.00 | 0.00 | 0.00 | 89 | 1004.1 |
| 20260509075429 | 52 | 15 | 3.0 | 6.0 | 0.00 | 0.00 | 0.00 | 89 | 1004.3 |
| 20260509074919 | 52 | 15 | 2.0 | 6.0 | 0.00 | 0.00 | 0.00 | 89 | 1004.3 |
| 20260509074426 | 52 | 15 | 3.0 | 6.0 | 0.00 | 0.00 | 0.00 | 89 | 1004.4 |
| 20260509073934 | 52 | 16 | 2.0 | 5.0 | 0.00 | 0.00 | 0.00 | 88 | 1004.5 |
| 20260509073421 | 52 | 17 | 3.0 | 8.0 | 0.00 | 0.00 | 0.00 | 88 | 1004.5 |
| 20260509072932 | 52 | 16 | 3.0 | 9.0 | 0.00 | 0.00 | 0.00 | 88 | 1004.4 |
| 20260509072420 | 53 | 15 | 4.0 | 9.0 | 0.00 | 0.00 | 0.00 | 88 | 1004.4 |
| 20260509071929 | 53 | 15 | 3.0 | 8.0 | 0.00 | 0.00 | 0.00 | 88 | 1004.6 |
| 20260509071421 | 53 | 17 | 3.0 | 8.0 | 0.00 | 0.00 | 0.00 | 88 | 1004.7 |
| 20260509070926 | 53 | 15 | 3.0 | 5.0 | 0.00 | 0.00 | 0.00 | 88 | 1004.8 |
| 20260509070432 | 53 | 16 | 3.0 | 5.0 | 0.00 | 0.00 | 0.00 | 87 | 1004.9 |
| 20260509065920 | 53 | 17 | 2.0 | 5.0 | 0.00 | 0.00 | 0.00 | 87 | 1005.0 |
| 20260509065427 | 53 | 15 | 2.0 | 5.0 | 0.00 | 0.00 | 0.00 | 87 | 1005.0 |
| 20260509064917 | 53 | 16 | 1.0 | 4.0 | 0.00 | 0.00 | 0.00 | 87 | 1005.1 |
| 20260509064426 | 53 | 15 | 2.0 | 6.0 | 0.00 | 0.00 | 0.00 | 87 | 1005.0 |
| 20260509063934 | 53 | 15 | 3.0 | 6.0 | 0.00 | 0.00 | 0.00 | 86 | 1005.1 |
| 20260509063436 | 54 | 15 | 2.0 | 6.0 | 0.00 | 0.00 | 0.00 | 86 | 1005.1 |
| 20260509062945 | 54 | 15 | 3.0 | 6.0 | 0.00 | 0.00 | 0.00 | 86 | 1005.2 |
| 20260509062433 | 54 | 15 | 3.0 | 5.0 | 0.00 | 0.00 | 0.00 | 86 | 1005.2 |
| 20260509061919 | 54 | 15 | 3.0 | 5.0 | 0.00 | 0.00 | 0.00 | 86 | 1005.3 |
| 20260509061430 | 54 | 15 | 3.0 | 5.0 | 0.00 | 0.00 | 0.00 | 85 | 1005.4 |
| 20260509060918 | 54 | 13 | 2.0 | 5.0 | 0.00 | 0.00 | 0.00 | 85 | 1005.3 |
| 20260509060425 | 54 | 15 | 2.0 | 5.0 | 0.00 | 0.00 | 0.00 | 85 | 1005.4 |
| 20260509055936 | 55 | 15 | 3.0 | 8.0 | 0.00 | 0.00 | 0.00 | 85 | 1005.4 |
| 20260509055422 | 55 | 16 | 4.0 | 8.0 | 0.00 | 0.00 | 0.00 | 85 | 1005.6 |
| 20260509054929 | 55 | 15 | 2.0 | 8.0 | 0.00 | 0.00 | 0.00 | 85 | 1005.5 |
| 20260509054421 | 55 | 16 | 4.0 | 10.0 | 0.00 | 0.00 | 0.00 | 85 | 1005.5 |
| 20260509053929 | 55 | 15 | 3.0 | 10.0 | 0.00 | 0.00 | 0.00 | 85 | 1005.6 |
| 20260509053417 | 55 | 17 | 3.0 | 9.0 | 0.00 | 0.00 | 0.00 | 84 | 1005.7 |
| 20260509052924 | 55 | 15 | 4.0 | 8.0 | 0.00 | 0.00 | 0.00 | 84 | 1005.6 |
| 20260509052500 | 55 | 14 | 4.0 | 8.0 | 0.00 | 0.00 | 0.00 | 84 | 1005.6 |
| 20260509051948 | 56 | 15 | 3.0 | 6.0 | 0.00 | 0.00 | 0.00 | 84 | 1005.6 |
| 20260509051440 | 56 | 14 | 4.0 | 8.0 | 0.00 | 0.00 | 0.00 | 84 | 1005.6 |
| 20260509050949 | 56 | 15 | 5.0 | 8.0 | 0.00 | 0.00 | 0.00 | 84 | 1005.5 |
| 20260509050416 | 56 | 15 | 3.0 | 8.0 | 0.00 | 0.00 | 0.00 | 83 | 1005.6 |
| 20260509045919 | 56 | 15 | 3.0 | 8.0 | 0.00 | 0.00 | 0.00 | 83 | 1005.6 |
| 20260509045427 | 56 | 14 | 3.0 | 8.0 | 0.00 | 0.00 | 0.00 | 83 | 1005.6 |
| 20260509044918 | 56 | 15 | 4.0 | 8.0 | 0.00 | 0.00 | 0.00 | 82 | 1005.6 |
| 20260509044428 | 56 | 15 | 3.0 | 6.0 | 0.00 | 0.00 | 0.00 | 82 | 1005.6 |
| 20260509043916 | 56 | 15 | 4.0 | 8.0 | 0.00 | 0.00 | 0.00 | 82 | 1005.6 |
| 20260509043419 | 57 | 15 | 4.0 | 6.0 | 0.00 | 0.00 | 0.00 | 81 | 1005.7 |
| 20260509042948 | 57 | 15 | 4.0 | 8.0 | 0.00 | 0.00 | 0.00 | 81 | 1005.7 |
| 20260509042418 | 57 | 15 | 4.0 | 10.0 | 0.00 | 0.00 | 0.00 | 80 | 1005.7 |
| 20260509041928 | 57 | 15 | 3.0 | 10.0 | 0.00 | 0.00 | 0.00 | 79 | 1005.7 |
| 20260509041440 | 57 | 14 | 5.0 | 8.0 | 0.00 | 0.00 | 0.00 | 79 | 1005.7 |
| 20260509040949 | 57 | 15 | 4.0 | 8.0 | 0.00 | 0.00 | 0.00 | 78 | 1005.8 |
| 20260509040417 | 58 | 16 | 3.0 | 5.0 | 0.00 | 0.00 | 0.00 | 77 | 1005.9 |
| 20260509035929 | 58 | 15 | 3.0 | 10.0 | 0.00 | 0.00 | 0.00 | 77 | 1005.8 |
| 20260509035437 | 58 | 15 | 6.0 | 11.0 | 0.00 | 0.00 | 0.00 | 76 | 1006.0 |
| 20260509034925 | 58 | 15 | 5.0 | 11.0 | 0.00 | 0.00 | 0.00 | 76 | 1005.8 |
| 20260509034431 | 58 | 15 | 4.0 | 11.0 | 0.00 | 0.00 | 0.00 | 75 | 1005.9 |
| 20260509033917 | 58 | 15 | 5.0 | 11.0 | 0.00 | 0.00 | 0.00 | 74 | 1005.9 |
| 20260509033428 | 58 | 14 | 4.0 | 6.0 | 0.00 | 0.00 | 0.00 | 73 | 1005.9 |
| 20260509032940 | 58 | 15 | 3.0 | 6.0 | 0.00 | 0.00 | 0.00 | 73 | 1005.9 |
| 20260509032450 | 59 | 14 | 3.0 | 8.0 | 0.00 | 0.00 | 0.00 | 72 | 1006.0 |
| 20260509031915 | 59 | 15 | 4.0 | 6.0 | 0.00 | 0.00 | 0.00 | 73 | 1006.0 |
| 20260509031427 | 59 | 14 | 4.0 | 7.0 | 0.00 | 0.00 | 0.00 | 73 | 1005.9 |
| 20260509030916 | 59 | 15 | 4.0 | 8.0 | 0.00 | 0.00 | 0.00 | 73 | 1005.9 |
| 20260509030425 | 59 | 15 | 4.0 | 8.0 | 0.00 | 0.00 | 0.00 | 73 | 1006.0 |
| 20260509025917 | 59 | 15 | 4.0 | 9.0 | 0.00 | 0.00 | 0.00 | 73 | 1006.0 |
| 20260509025428 | 59 | 15 | 4.0 | 9.0 | 0.00 | 0.00 | 0.00 | 73 | 1006.0 |
| 20260509024916 | 60 | 16 | 4.0 | 6.0 | 0.00 | 0.00 | 0.00 | 72 | 1006.0 |
| 20260509024428 | 60 | 16 | 3.0 | 8.0 | 0.00 | 0.00 | 0.00 | 71 | 1006.0 |
| 20260509023917 | 60 | 17 | 4.0 | 9.0 | 0.00 | 0.00 | 0.00 | 71 | 1006.0 |
| 20260509023422 | 60 | 16 | 5.0 | 9.0 | 0.00 | 0.00 | 0.00 | 69 | 1006.0 |
| 20260509022933 | 60 | 17 | 4.0 | 8.0 | 0.00 | 0.00 | 0.00 | 68 | 1005.9 |
| 20260509022438 | 60 | 15 | 4.0 | 8.0 | 0.00 | 0.00 | 0.00 | 65 | 1006.0 |
| 20260509021926 | 61 | 16 | 3.0 | 8.0 | 0.00 | 0.00 | 0.00 | 62 | 1006.0 |
| 20260509021440 | 61 | 21 | 4.0 | 8.0 | 0.00 | 0.00 | 0.00 | 60 | 1006.0 |
| 20260509020931 | 61 | 20 | 3.0 | 6.0 | 0.00 | 0.00 | 0.00 | 59 | 1006.0 |
| 20260509020437 | 61 | 17 | 2.0 | 3.0 | 0.00 | 0.00 | 0.00 | 58 | 1005.9 |
| 20260509015929 | 61 | 22 | 2.0 | 3.0 | 0.00 | 0.00 | 0.00 | 58 | 1005.9 |
| 20260509015417 | 62 | 21 | 1.0 | 3.0 | 0.00 | 0.00 | 0.00 | 58 | 1005.8 |
| 20260509014927 | 62 | 26 | 2.0 | 3.0 | 0.00 | 0.00 | 0.00 | 58 | 1005.8 |
| 20260509014430 | 62 | 22 | 2.0 | 4.0 | 0.00 | 0.00 | 0.00 | 57 | 1005.7 |
| 20260509013919 | 62 | 24 | 2.0 | 4.0 | 0.00 | 0.00 | 0.00 | 57 | 1005.6 |
| 20260509013425 | 62 | 19 | 2.0 | 4.0 | 0.00 | 0.00 | 0.00 | 57 | 1005.7 |
| 20260509012934 | 63 | 21 | 2.0 | 6.0 | 0.00 | 0.00 | 0.00 | 57 | 1005.7 |
| 20260509012441 | 63 | 19 | 2.0 | 6.0 | 0.00 | 0.00 | 0.00 | 56 | 1005.6 |
| 20260509011949 | 63 | 18 | 2.0 | 5.0 | 0.00 | 0.00 | 0.00 | 56 | 1005.7 |
| 20260509011448 | 63 | 21 | 2.0 | 5.0 | 0.00 | 0.00 | 0.00 | 56 | 1005.6 |
| 20260509010917 | 63 | 44 | 2.0 | 4.0 | 0.00 | 0.00 | 0.00 | 55 | 1005.5 |
| 20260509010425 | 64 | 50 | 2.0 | 4.0 | 0.00 | 0.00 | 0.00 | 54 | 1005.6 |
| 20260509005916 | 64 | 44 | 2.0 | 5.0 | 0.00 | 0.00 | 0.00 | 53 | 1005.5 |
| 20260509005452 | 64 | 33 | 2.0 | 5.0 | 0.00 | 0.00 | 0.00 | 53 | 1005.5 |
| 20260509004919 | 64 | 30 | 2.0 | 4.0 | 0.00 | 0.00 | 0.00 | 53 | 1005.6 |
| 20260509004456 | 64 | 82 | 2.0 | 5.0 | 0.00 | 0.00 | 0.00 | 52 | 1005.5 |
| 20260509003923 | 65 | 360 | 2.0 | 8.0 | 0.00 | 0.00 | 0.00 | 52 | 1005.6 |
| 20260509003431 | 65 | 360 | 3.0 | 8.0 | 0.00 | 0.00 | 0.00 | 52 | 1005.6 |
| 20260509002924 | 65 | 44 | 2.0 | 6.0 | 0.00 | 0.00 | 0.00 | 52 | 1005.6 |
| 20260509002431 | 65 | 82 | 3.0 | 6.0 | 0.00 | 0.00 | 0.00 | 52 | 1005.6 |
| 20260509001918 | 64 | 67 | 2.0 | 6.0 | 0.00 | 0.00 | 0.00 | 53 | 1005.5 |
| 20260509001431 | 64 | 84 | 4.0 | 7.0 | 0.00 | 0.00 | 0.00 | 53 | 1005.6 |
| 20260509000940 | 64 | 76 | 2.0 | 4.0 | 0.00 | 0.00 | 0.00 | 54 | 1005.6 |
| 20260509000449 | 65 | 76 | 2.0 | 5.0 | 0.00 | 0.00 | 0.00 | 55 | 1005.6 |
| 20260508235940 | 65 | 30 | 2.0 | 5.0 | 0.00 | 0.00 | 0.00 | 54 | 1005.6 |
| 20260508235427 | 65 | 39 | 2.0 | 5.0 | 0.00 | 0.00 | 0.00 | 53 | 1005.6 |
| 20260508234917 | 65 | 36 | 3.0 | 6.0 | 0.00 | 0.00 | 0.00 | 52 | 1005.7 |
| 20260508234424 | 65 | 50 | 4.0 | 7.0 | 0.00 | 0.00 | 0.00 | 51 | 1005.6 |
| 20260508233935 | 65 | 55 | 3.0 | 7.0 | 0.00 | 0.00 | 0.00 | 51 | 1005.7 |
| 20260508233444 | 65 | 226 | 3.0 | 5.0 | 0.00 | 0.00 | 0.00 | 50 | 1005.8 |
| 20260508232931 | 66 | 188 | 2.0 | 7.0 | 0.00 | 0.00 | 0.00 | 50 | 1005.8 |
| 20260508232419 | 66 | 236 | 3.0 | 7.0 | 0.00 | 0.00 | 0.00 | 49 | 1005.8 |
| 20260508231925 | 66 | 235 | 4.0 | 8.0 | 0.00 | 0.00 | 0.00 | 51 | 1005.8 |
| 20260508231416 | 66 | 201 | 4.0 | 8.0 | 0.00 | 0.00 | 0.00 | 51 | 1005.7 |
| 20260508230923 | 66 | 175 | 3.0 | 9.0 | 0.00 | 0.00 | 0.00 | 50 | 1005.7 |
| 20260508230432 | 66 | 209 | 4.0 | 9.0 | 0.00 | 0.00 | 0.00 | 51 | 1005.8 |
| 20260508225943 | 66 | 196 | 4.0 | 9.0 | 0.00 | 0.00 | 0.00 | 50 | 1005.8 |
| 20260508225449 | 66 | 219 | 4.0 | 6.0 | 0.00 | 0.00 | 0.00 | 50 | 1005.9 |
| 20260508224916 | 66 | 186 | 2.0 | 6.0 | 0.00 | 0.00 | 0.00 | 52 | 1005.9 |
| 20260508224422 | 66 | 205 | 3.0 | 9.0 | 0.00 | 0.00 | 0.00 | 51 | 1005.9 |
| 20260508223931 | 66 | 205 | 5.0 | 9.0 | 0.00 | 0.00 | 0.00 | 51 | 1006.1 |
| 20260508223418 | 66 | 205 | 2.0 | 8.0 | 0.00 | 0.00 | 0.00 | 51 | 1006.1 |
| 20260508222949 | 66 | 203 | 4.0 | 8.0 | 0.00 | 0.00 | 0.00 | 52 | 1006.2 |
| 20260508222419 | 66 | 200 | 3.0 | 7.0 | 0.00 | 0.00 | 0.00 | 52 | 1006.0 |
| 20260508221926 | 66 | 188 | 3.0 | 7.0 | 0.00 | 0.00 | 0.00 | 52 | 1005.9 |
| 20260508221436 | 66 | 235 | 2.0 | 8.0 | 0.00 | 0.00 | 0.00 | 53 | 1006.1 |
| 20260508220922 | 66 | 221 | 2.0 | 8.0 | 0.00 | 0.00 | 0.00 | 53 | 1006.1 |
| 20260508220431 | 66 | 158 | 3.0 | 9.0 | 0.00 | 0.00 | 0.00 | 51 | 1006.2 |
| 20260508215923 | 66 | 213 | 3.0 | 10.0 | 0.00 | 0.00 | 0.00 | 51 | 1006.2 |
| 20260508215412 | 66 | 208 | 2.0 | 6.0 | 0.00 | 0.00 | 0.00 | 51 | 1006.3 |
| 20260508214919 | 66 | 183 | 3.0 | 9.0 | 0.00 | 0.00 | 0.00 | 51 | 1006.2 |
| 20260508214412 | 67 | 195 | 4.0 | 9.0 | 0.00 | 0.00 | 0.00 | 50 | 1006.3 |
| 20260508213918 | 66 | 217 | 2.0 | 8.0 | 0.00 | 0.00 | 0.00 | 52 | 1006.4 |
| 20260508213427 | 66 | 224 | 4.0 | 8.0 | 0.00 | 0.00 | 0.00 | 50 | 1006.4 |
| 20260508212937 | 66 | 207 | 4.0 | 7.0 | 0.00 | 0.00 | 0.00 | 51 | 1006.4 |
| 20260508212445 | 65 | 194 | 3.0 | 8.0 | 0.00 | 0.00 | 0.00 | 52 | 1006.4 |
| 20260508211912 | 65 | 185 | 4.0 | 8.0 | 0.00 | 0.00 | 0.00 | 51 | 1006.4 |
| 20260508211424 | 65 | 202 | 3.0 | 7.0 | 0.00 | 0.00 | 0.00 | 51 | 1006.4 |
| 20260508210914 | 65 | 218 | 3.0 | 8.0 | 0.00 | 0.00 | 0.00 | 49 | 1006.4 |
| 20260508210452 | 66 | 220 | 5.0 | 10.0 | 0.00 | 0.00 | 0.00 | 48 | 1006.5 |
| 20260508205949 | 66 | 138 | 5.0 | 10.0 | 0.00 | 0.00 | 0.00 | 49 | 1006.4 |
| 20260508205435 | 66 | 185 | 5.0 | 8.0 | 0.00 | 0.00 | 0.00 | 48 | 1006.4 |
| 20260508204942 | 67 | 128 | 4.0 | 8.0 | 0.00 | 0.00 | 0.00 | 49 | 1006.4 |
| 20260508204431 | 66 | 192 | 4.0 | 8.0 | 0.00 | 0.00 | 0.00 | 48 | 1006.4 |
| 20260508203921 | 66 | 202 | 4.0 | 9.0 | 0.00 | 0.00 | 0.00 | 48 | 1006.4 |